Home   Weather   Khon Kaen   Past weeks

Flag for Thailand Past Weather in Khon Kaen, Thailand — Yesterday and Last 2 Weeks

Now
77 °F

Partly sunny.


Feels Like: 79 °F
Forecast: 68 / 79 °F
Wind: 7 mph from North

Location: Khon Kaen Airport

Current Time: Dec 6, 2016 at 10:11:22 am

Latest Report: Dec 6, 2016 at 9:00 am


Visibility: 4 mi

Pressure: 30.04 "Hg

Humidity: 69%

Dew Point: 66 °F

Location of Khon KaenLocation

Past Weather in Khon Kaen — Graph

°F

Khon Kaen Temperature Yesterday

Maximum temperature yesterday: 86 °F (at 2:00 pm)
Minimum temperature yesterday: 68 °F (at 4:00 am)
Average temperature yesterday: 77 °F

High & Low Weather Summary for the Past Weeks

 TemperatureHumidityPressure
High93 °F (Nov 21, 2:00 pm)100% (Nov 23, 6:00 am)30.12 "Hg (Nov 23, 6:00 am)
Low63 °F (Nov 28, 6:00 am)45% (Nov 28, 12:00 pm)29.71 "Hg (Nov 21, 4:00 pm)
Average78 °F73%29.93 "Hg
* Reported Nov 21 9:00 am — Dec 6 9:00 am, Khon Kaen, Weather by CustomWeather, © 2016

Note: Actual official high and low records may vary slightly from our data, if they occured in-between our weather recording intervals... More about our weather records

Advertising

Khon Kaen Weather History for the Previous 24 Hours

Scroll right to see more
 ConditionsComfort  
Time TempWeatherWind HumidityBarometerVisibility
9:00 am
Tue, Dec 6
77 °FPartly sunny.7 mph69%30.04 "Hg4 mi
8:00 am73 °FPartly sunny.6 mph78%30.04 "Hg4 mi
7:00 am72 °FBroken clouds.6 mph83%30.01 "Hg4 mi
6:00 am72 °FPassing clouds.5 mph83%30.01 "Hg5 mi
5:00 am72 °FPartly cloudy.7 mph78%29.98 "Hg5 mi
4:00 am72 °FPassing clouds.6 mph83%29.98 "Hg5 mi
3:00 am73 °FPassing clouds.7 mph78%30.01 "Hg5 mi
2:00 am73 °FPassing clouds.7 mph78%30.01 "Hg5 mi
1:00 am73 °FClear.5 mph83%30.01 "Hg5 mi
12:00 am75 °FClear.5 mph78%30.01 "Hg5 mi
11:00 pm
Mon, Dec 5
77 °FClear.7 mph74%30.01 "Hg5 mi
10:00 pm77 °FClear.7 mph69%30.01 "Hg5 mi
9:00 pm75 °FClear.6 mph74%29.98 "Hg5 mi
8:00 pm77 °FClear.7 mph69%29.98 "Hg5 mi
7:00 pm79 °FClear.8 mph65%29.95 "Hg5 mi
6:00 pm79 °FClear.6 mph65%29.92 "Hg6 mi
5:00 pm84 °FScattered clouds.8 mph55%29.89 "HgN/A
4:00 pm86 °FScattered clouds.8 mph52%29.89 "HgN/A
3:00 pm86 °FPassing clouds.9 mph52%29.89 "HgN/A
2:00 pm86 °FScattered clouds.9 mph52%29.89 "HgN/A
1:00 pm84 °FPassing clouds.8 mph55%29.92 "HgN/A
12:00 pm84 °FPassing clouds.8 mph55%29.95 "HgN/A
11:00 am81 °FPassing clouds.8 mph62%29.98 "HgN/A
10:00 am79 °FPassing clouds.7 mph65%29.98 "HgN/A
Weather by CustomWeather, © 2016

See weather overviewHow to use our weather pages